[[{"header":{"parameterUnit":"m.s-1","parameterCategory":1,"la1":30.2991,"la2":30.254,"lo1":-89.0895,"lo2":-89.0444,"dy":0.0017,"dx":0.0017,"nx":28,"ny":28,"refTime":"2025-11-17T03:00:00:Z","depth":0,"parameterNumber":2,"parameterNumberName":"U-component_of_WINDS"},"data":[0,0,0,0,0,0,0,0,0,0,0,0,0,0,0,0,0,0,0,0,0,0,0,0,0,0,0,0,0,0,0,0,0,0,0,0,0,0,0,0,0,0,0,0,0,0,0,0,0,0,0,0,0,0,0,0,0,0,0.0881,0.0881,0,0.0921,0.0921,0.0922,0.0934,0.0934,0.0934,0.0934,0.0975,0.0976,0.0977,0,0,0,0,0,0,0,0,0,0,0,0,0,0.0814,0.0815,0.0881,0.0881,0.0882,0.0921,0.0922,0.0922,0.0934,0.0934,0.0934,0.0934,0.0974,0.0976,0.0977,0,0,0,0,0,0,0,0,0,0,0,0,0,0.0848,0.0816,0.0881,0.0893,0.0894,0.0921,0.0922,0.0922,0.0934,0.0934,0.0934,0.0934,0.0974,0.0976,0.0977,0.0995,0,0,0.0983,0.0984,0,0,0,0,0,0,0,0,0.0846,0.085,0.089,0.0892,0.0893,0.0922,0.0913,0.0947,0.0935,0.0919,0.0934,0.0933,0.0957,0.0961,0.0969,0.0997,0.0999,0.0983,0.0985,0.0985,0.0986,0,0,0,0,0,0,0,0.0843,0.0848,0.0897,0.0891,0.0893,0.0896,0.09,0.0919,0.0939,0.092,0.0921,0.0926,0.0958,0.0967,0.097,0.0999,0.0983,0.0985,0.0986,0.0987,0.1045,0.1045,0,0,0,0,0,0,0.0839,0.0846,0.0895,0.0898,0.0868,0.0897,0.0902,0.0913,0.0939,0.0943,0.0926,0.0926,0.0964,0.0968,0.0971,0.0994,0.0985,0.0987,0.0988,0.1045,0.1045,0.1045,0,0,0,0,0,0,0.0838,0.0843,0.0894,0.0872,0.0879,0.0899,0.0911,0.0914,0.0923,0.0944,0.0947,0.0932,0.0964,0.0969,0.0989,0.0996,0.0988,0.099,0.1044,0.1045,0.1045,0.104,0,0,0,0,0,0,0.0836,0.0843,0.0849,0.0872,0.088,0.0911,0.0912,0.0915,0.0926,0.0927,0.095,0.0953,0.0964,0.0986,0.0991,0.0998,0.0991,0.1044,0.1044,0.1045,0.104,0.104,0.1041,0,0,0,0,0,0.0833,0.0846,0.085,0.0856,0.0889,0.0911,0.0916,0.0928,0.0927,0.0934,0.0947,0.0952,0.0994,0.0988,0.0994,0.1002,0.1043,0.1044,0.1045,0.1039,0.104,0.1041,0,0,0,0,0,0,0.0823,0.0849,0.0854,0.0874,0.0891,0.0913,0.0923,0.0928,0.0945,0.0945,0.096,0.0965,0.0984,0.0995,0.0988,0.1021,0.1019,0.1021,0.1013,0.1014,0.1015,0.1012,0.0993,0,0,0,0,0,0.0823,0.0839,0.0861,0.0877,0.0885,0.0903,0.0913,0.0921,0.0938,0.0945,0.096,0.0976,0.0993,0.1004,0.1021,0.1041,0.1047,0.105,0.105,0.1051,0.1052,0.1065,0.1066,0.1048,0.1048,0.1048,0,0,0.0824,0.084,0.0849,0.0876,0.0889,0.0905,0.0908,0.0925,0.0937,0.0947,0.0968,0.098,0.0999,0.102,0.103,0.1029,0.1059,0.1052,0.1052,0.1053,0.1066,0.1068,0.1069,0.1049,0.1049,0.1049,0,0,0.0833,0.0847,0.0862,0.0876,0.0896,0.0908,0.0912,0.0934,0.0942,0.0963,0.0971,0.0986,0.1015,0.1029,0.1039,0.1055,0.106,0.106,0.1063,0.1075,0.1077,0.1078,0.1084,0.1086,0.1061,0.1061,0.1061,0,0.0831,0.0856,0.0869,0.0886,0.0898,0.0908,0.0924,0.0937,0.0961,0.0969,0.0969,0.1006,0.102,0.1044,0.1048,0.1056,0.1061,0.1057,0.1075,0.1077,0.1078,0.1084,0.1086,0.1061,0.1061,0.1061,0.1061,0,0.0852,0.087,0.088,0.0904,0.0917,0.0933,0.0949,0.096,0.0968,0.0979,0.1001,0.1018,0.1039,0.1045,0.1052,0.1071,0.1071,0.1072,0.1071,0.108,0.1086,0.1088,0.1061,0.1061,0.1061,0.1061,0,0,0.0856,0.0888,0.0892,0.0903,0.0927,0.0941,0.0958,0.0978,0.0988,0.1005,0.102,0.1044,0.1047,0.1059,0.1068,0.1078,0.109,0.1079,0.108,0.1081,0.1113,0.1112,0.1114,0.1094,0.1095,0.1095,0.1111,0,0.0869,0.0899,0.0912,0.0937,0.0954,0.0964,0.0979,0.0996,0.1007,0.1023,0.1035,0.1053,0.1054,0.1062,0.1073,0.1087,0.1097,0.1085,0.1108,0.1109,0.1103,0.1117,0.1116,0.113,0.1114,0.1114,0.1114,0,0.0887,0.0905,0.0932,0.0954,0.0962,0.0975,0.0995,0.101,0.1029,0.1037,0.1051,0.106,0.1078,0.1076,0.1102,0.1093,0.1104,0.1112,0.1113,0.1116,0.1112,0.1121,0.1135,0.1138,0.1118,0.1118,0.1118,0,0.0888,0.0918,0.0938,0.0948,0.0975,0.0984,0.0996,0.1014,0.1026,0.1044,0.1052,0.1072,0.1083,0.1098,0.1112,0.1108,0.1137,0.1135,0.1144,0.1144,0.1149,0.1149,0.1166,0.1155,0.1155,0.1155,0.1155,0,0.0901,0.0917,0.0939,0.0952,0.097,0.0985,0.1003,0.1015,0.1032,0.1047,0.1057,0.1071,0.1089,0.1105,0.1116,0.1136,0.1141,0.1148,0.1151,0.1147,0.1146,0.1154,0.1154,0.1156,0.1156,0.1156,0.1155,0,0.0904,0.092,0.0943,0.0967,0.0973,0.0986,0.1006,0.1019,0.1031,0.105,0.1056,0.1075,0.1095,0.111,0.1136,0.1143,0.1165,0.1168,0.1159,0.116,0.1168,0.1168,0.1192,0.1196,0.1182,0.1182,0.1182,0,0.0912,0.0924,0.095,0.0961,0.0973,0.099,0.1003,0.1018,0.1031,0.1054,0.1064,0.1085,0.1102,0.1133,0.115,0.117,0.1173,0.118,0.1176,0.1173,0.1174,0.1173,0.1175,0.1181,0.1181,0.1181,0.1181,0,0.0923,0.0931,0.0948,0.0969,0.0984,0.1,0.1017,0.1026,0.1045,0.1058,0.1079,0.1092,0.1119,0.114,0.1162,0.1174,0.1181,0.1182,0.1185,0.1182,0.1177,0.118,0.1161,0.1182,0.1182,0.1181,0.1181,0.1181,0.0929,0.0941,0.0962,0.0981,0.0996,0.1012,0.1025,0.1039,0.1057,0.108,0.1088,0.111,0.1129,0.1159,0.1172,0.1189,0.1189,0.1194,0.1195,0.1196,0.1196,0.1174,0.1193,0.1193,0.1193,0.1193,0.1193,0,0.0942,0.0955,0.0973,0.0997,0.1013,0.1018,0.1038,0.105,0.1069,0.1087,0.1104,0.1128,0.1149,0.1167,0.1188,0.1199,0.1202,0.1204,0.1203,0.1206,0.1194,0.1189,0.12,0.12,0.12,0.12,0.12,0.12,0.095,0.0971,0.0981,0.101,0.1023,0.1045,0.1055,0.107,0.1085,0.1112,0.1129,0.1141,0.1159,0.1182,0.1201,0.1206,0.1213,0.1214,0.1219,0.1208,0.1207,0.1206,0.1202,0.1215,0.1215,0.123,0.123,0.1231]},{"header":{"parameterUnit":"m.s-1","parameterCategory":1,"la1":30.2991,"la2":30.254,"lo1":-89.0895,"lo2":-89.0444,"dy":0.0017,"dx":0.0017,"nx":28,"ny":28,"refTime":"2025-11-17T03:00:00:Z","depth":0,"parameterNumber":3,"parameterNumberName":"V-component_of_WINDS"},"data":[0,0,0,0,0,0,0,0,0,0,0,0,0,0,0,0,0,0,0,0,0,0,0,0,0,0,0,0,0,0,0,0,0,0,0,0,0,0,0,0,0,0,0,0,0,0,0,0,0,0,0,0,0,0,0,0,0,0,-0.7009,-0.7009,0,-0.701,-0.701,-0.701,-0.702,-0.7021,-0.7021,-0.7021,-0.7021,-0.702,-0.702,0,0,0,0,0,0,0,0,0,0,0,0,0,-0.7016,-0.7016,-0.7009,-0.7009,-0.7009,-0.701,-0.701,-0.701,-0.702,-0.7021,-0.7021,-0.7021,-0.7021,-0.702,-0.702,0,0,0,0,0,0,0,0,0,0,0,0,0,-0.7015,-0.7016,-0.7009,-0.7014,-0.7015,-0.701,-0.701,-0.701,-0.702,-0.7021,-0.7021,-0.7021,-0.7021,-0.7021,-0.702,-0.7009,0,0,-0.7019,-0.7019,0,0,0,0,0,0,0,0,-0.7015,-0.7014,-0.7014,-0.7014,-0.7015,-0.7015,-0.7012,-0.7009,-0.702,-0.7018,-0.7021,-0.7022,-0.7018,-0.7018,-0.7017,-0.7009,-0.7009,-0.7019,-0.7019,-0.7018,-0.7018,0,0,0,0,0,0,0,-0.7015,-0.7014,-0.7009,-0.7014,-0.7014,-0.7017,-0.7017,-0.7012,-0.7016,-0.7018,-0.7019,-0.7019,-0.7019,-0.7018,-0.7018,-0.7009,-0.7019,-0.7019,-0.7018,-0.7018,-0.6992,-0.6992,0,0,0,0,0,0,-0.7014,-0.7014,-0.7009,-0.7009,-0.7016,-0.7016,-0.7016,-0.7015,-0.7016,-0.7017,-0.7019,-0.702,-0.7018,-0.7018,-0.7018,-0.7005,-0.7018,-0.7018,-0.7018,-0.6993,-0.6992,-0.6992,0,0,0,0,0,0,-0.7014,-0.7014,-0.7009,-0.7012,-0.7012,-0.7016,-0.7013,-0.7014,-0.7013,-0.7016,-0.7017,-0.7017,-0.7019,-0.7018,-0.7011,-0.7005,-0.7018,-0.7018,-0.6993,-0.6993,-0.6992,-0.698,0,0,0,0,0,0,-0.7015,-0.7014,-0.701,-0.7012,-0.7011,-0.7003,-0.7013,-0.7014,-0.7013,-0.7014,-0.7015,-0.7015,-0.7019,-0.7012,-0.7011,-0.7005,-0.7017,-0.6994,-0.6993,-0.6992,-0.6981,-0.6979,-0.6977,0,0,0,0,0,-0.7015,-0.7006,-0.701,-0.7009,-0.7007,-0.7003,-0.7002,-0.7007,-0.7012,-0.7008,-0.701,-0.7015,-0.7006,-0.7011,-0.701,-0.7004,-0.6994,-0.6993,-0.6992,-0.6981,-0.6979,-0.6977,0,0,0,0,0,0,-0.7003,-0.7006,-0.701,-0.7002,-0.7002,-0.7005,-0.7,-0.7004,-0.7002,-0.7003,-0.7009,-0.7009,-0.7001,-0.7002,-0.7008,-0.6993,-0.7001,-0.7,-0.6993,-0.6991,-0.6989,-0.6989,-0.7017,0,0,0,0,0,-0.6999,-0.6996,-0.6999,-0.6992,-0.6992,-0.6996,-0.6994,-0.6997,-0.6998,-0.6997,-0.6999,-0.6998,-0.6995,-0.6993,-0.6991,-0.6981,-0.6981,-0.6976,-0.6974,-0.6973,-0.6971,-0.6966,-0.6964,-0.6988,-0.6988,-0.6988,0,0,-0.6992,-0.6993,-0.6991,-0.6989,-0.699,-0.6986,-0.6995,-0.6991,-0.6988,-0.6997,-0.699,-0.6991,-0.6991,-0.6983,-0.6979,-0.6983,-0.6965,-0.6971,-0.697,-0.697,-0.6965,-0.6962,-0.696,-0.6988,-0.6988,-0.6988,0,0,-0.6976,-0.6977,-0.6971,-0.6971,-0.6972,-0.6975,-0.6973,-0.6975,-0.6976,-0.697,-0.6976,-0.6973,-0.6968,-0.6967,-0.6966,-0.6951,-0.6955,-0.695,-0.694,-0.6935,-0.6933,-0.6931,-0.6925,-0.6923,-0.6949,-0.6949,-0.6949,0,-0.6966,-0.6961,-0.6967,-0.6962,-0.6961,-0.6969,-0.6963,-0.6963,-0.6962,-0.6961,-0.6966,-0.6959,-0.696,-0.6951,-0.6948,-0.6947,-0.6945,-0.6949,-0.6933,-0.6931,-0.6929,-0.6924,-0.6922,-0.6948,-0.6948,-0.6948,-0.6948,0,-0.6949,-0.6946,-0.694,-0.694,-0.6939,-0.6933,-0.6938,-0.6935,-0.6939,-0.6941,-0.6935,-0.6936,-0.6934,-0.6932,-0.6936,-0.6924,-0.6926,-0.6932,-0.694,-0.6926,-0.6921,-0.6919,-0.6947,-0.6947,-0.6947,-0.6948,0,0,-0.6925,-0.6929,-0.6927,-0.6927,-0.6928,-0.6925,-0.692,-0.6918,-0.6916,-0.6915,-0.6911,-0.6906,-0.6911,-0.691,-0.6914,-0.6909,-0.6897,-0.6915,-0.6915,-0.6911,-0.6884,-0.6879,-0.6877,-0.69,-0.69,-0.69,-0.6884,0,-0.691,-0.6901,-0.6906,-0.6897,-0.6893,-0.6901,-0.6897,-0.6897,-0.6899,-0.6896,-0.6898,-0.6895,-0.6902,-0.6901,-0.6897,-0.6899,-0.6891,-0.69,-0.6896,-0.6895,-0.6895,-0.6874,-0.687,-0.6855,-0.6882,-0.6881,-0.6881,0,-0.689,-0.689,-0.688,-0.6882,-0.6881,-0.6876,-0.6875,-0.6872,-0.6873,-0.6875,-0.6874,-0.6879,-0.6873,-0.6882,-0.6874,-0.688,-0.6879,-0.6879,-0.6879,-0.6878,-0.6887,-0.6873,-0.685,-0.6848,-0.6878,-0.6878,-0.6879,0,-0.6873,-0.687,-0.6863,-0.6863,-0.6866,-0.6863,-0.6863,-0.6864,-0.6863,-0.6862,-0.6861,-0.6859,-0.6858,-0.6856,-0.686,-0.6866,-0.6852,-0.6861,-0.6853,-0.6853,-0.6849,-0.6849,-0.6826,-0.6849,-0.6849,-0.6849,-0.6849,0,-0.6855,-0.6849,-0.6856,-0.6852,-0.6845,-0.6851,-0.6844,-0.6845,-0.6846,-0.6842,-0.6849,-0.6846,-0.6851,-0.6848,-0.6851,-0.6845,-0.6844,-0.6845,-0.6846,-0.6844,-0.6844,-0.6843,-0.6844,-0.6849,-0.6849,-0.6849,-0.6849,0,-0.6835,-0.6839,-0.6833,-0.6836,-0.6837,-0.6831,-0.6834,-0.683,-0.6833,-0.6828,-0.6827,-0.6831,-0.6828,-0.6832,-0.6829,-0.6831,-0.6822,-0.6825,-0.6822,-0.6823,-0.6815,-0.6815,-0.6789,-0.6786,-0.6812,-0.6811,-0.6811,0,-0.6822,-0.6818,-0.6821,-0.6819,-0.6819,-0.6816,-0.6815,-0.6821,-0.6819,-0.6819,-0.6816,-0.6813,-0.6811,-0.6805,-0.6808,-0.6806,-0.6808,-0.6799,-0.6808,-0.6806,-0.6807,-0.6807,-0.6807,-0.6797,-0.6797,-0.6796,-0.6796,0,-0.68,-0.6803,-0.6801,-0.6799,-0.6798,-0.6797,-0.6797,-0.6795,-0.6801,-0.6799,-0.6796,-0.6794,-0.6791,-0.6788,-0.6787,-0.6788,-0.6793,-0.6794,-0.6792,-0.6789,-0.6788,-0.6788,-0.6817,-0.6794,-0.6794,-0.6794,-0.6794,-0.6795,-0.6783,-0.6779,-0.6781,-0.6778,-0.6779,-0.6778,-0.6775,-0.6778,-0.6775,-0.6773,-0.6777,-0.6773,-0.6774,-0.6772,-0.6772,-0.6769,-0.6773,-0.677,-0.6769,-0.6768,-0.6767,-0.6789,-0.6769,-0.6769,-0.6769,-0.6769,-0.6769,0,-0.6761,-0.6762,-0.676,-0.6759,-0.6757,-0.6763,-0.6763,-0.6761,-0.6757,-0.6758,-0.6756,-0.6752,-0.675,-0.6752,-0.675,-0.6747,-0.6749,-0.6746,-0.6746,-0.6746,-0.6764,-0.6766,-0.6744,-0.6744,-0.6744,-0.6744,-0.6744,-0.6744,-0.6749,-0.6742,-0.6745,-0.6739,-0.6741,-0.6737,-0.6736,-0.6736,-0.6737,-0.6732,-0.673,-0.6732,-0.6733,-0.6731,-0.6729,-0.673,-0.6729,-0.6725,-0.6726,-0.6743,-0.6745,-0.6747,-0.6749,-0.6724,-0.6724,-0.6709,-0.6709,-0.6708]}]]